Regional Weather Roundup
Issued by NWS

Home | Current Version | Previous Version | Graphics & Text | Print | Product List | Glossary On
Versions: 1 2 3 4 5 6 7 8 9 10 11 12 13 14 15 16 17 18 19 20 21 22 23 24 25 26 27 28 29 30 31 32 33 34 35 36 37 38 39 40 41 42 43 44 45 46 47 48 49 50
000
ASUS45 KBOU 300807
RWRCO

WEATHER ROUNDUP FOR COLORADO
NATIONAL WEATHER SERVICE DENVER/BOULDER CO
200 AM MDT SAT MAY 30 2015

NOTE: "FAIR" INDICATES FEW OR NO CLOUDS BELOW 12000 FEET WITH NO
SIGNIFICANT WEATHER AND/OR OBSTRUCTIONS TO VISIBILITY.

COZ001>005-013-030-031-300900-
...NORTHWEST COLORADO...

CITY           SKY/WX    TMP DP  RH WIND       PRES   REMARKS
CRAIG          CLEAR     41  37  86 E3        30.30S
HAYDEN         CLEAR     43  36  75 E12       30.30F
MEEKER         CLEAR     43  38  82 NE5       30.30S
MOUNT WERNER   NOT AVBL
STEAMBOAT SPGS CLEAR     39  35  86 CALM      30.33S
WALDEN         CLEAR     32  30  93 SE7       30.37F WCI  26
$$

COZ006>008-011-300900-
...WEST CENTRAL VALLEYS...

CITY           SKY/WX    TMP DP  RH WIND       PRES   REMARKS
GRAND JUNCTION CLEAR     54  43  66 S3        30.19S
MONTROSE       CLEAR     50  39  66 SE9       30.27R
EAGLE          CLEAR     52  48  87 E5        30.36F
RIFLE          CLEAR     49  39  68 SE3       30.26S
DELTA          CLEAR     54  40  60 CALM      30.23S
NUCLA          CLEAR     50  36  57 MISG      30.28S
$$

COZ017>023-064>068-300900-
...SOUTHWEST COLORADO...

CITY           SKY/WX    TMP DP  RH WIND       PRES   REMARKS
DURANGO        CLEAR     45  33  63 NW3       30.25S
CORTEZ         CLEAR     44  31  60 E7        30.23S
PAGOSA SPRINGS CLEAR     49  28  45 CALM      30.31S
TELLURIDE      CLEAR     42  32  68 SE8       30.42S
WOLF CREEK PAS NOT AVBL
$$

COZ009-010-012-014-032>034-037-058>063-300900-
...CENTRAL COLORADO...

CITY           SKY/WX    TMP DP  RH WIND       PRES   REMARKS
ASPEN          CLEAR     38  33  82 S7        30.35F
BUENA VISTA    MOCLDY    42  35  75 NW5       30.40S
COPPER MTN     PTCLDY    34  27  75 SW5       30.52S WCI  30
BERTHOUD PASS  HAZE      27  19  74 NW13      30.53S VSB 1/4 WCI  16
COTTONWOOD PAS CLOUDY    43  36  75 CALM      30.45S
GUNNISON       CLEAR     39  28  65 CALM      30.38S
KREMMLING      CLEAR     36  34  93 CALM      30.39S
LEADVILLE      CLEAR     31  28  89 SE3       30.44R
MONARCH PASS   FOG       32  32 100 MISG      30.61F VSB<1/4
SALIDA         MOCLDY    48  41  75 E7        30.45S
SUNLIGHT       CLEAR     36  32  87 E3        30.50F
WILKERSON PASS CLEAR     32  30  93 SW3       30.52F
$$

COZ069>075-300900-
...SAN LUIS VALLEY/SANGRE DE CRISTO MOUNTAINS...

CITY           SKY/WX    TMP DP  RH WIND       PRES   REMARKS
ALAMOSA        CLEAR     46  38  73 E14       30.33S
LA VETA PASS   SNOW     N/A N/A N/A MISG      30.47F VSB 1/2
SAGUACHE       CLEAR     43  32  65 NW9       30.36R
$$

COZ035-036-038>040-300900-
...NORTHERN COLORADO FRONT RANGE...

CITY           SKY/WX    TMP DP  RH WIND       PRES   REMARKS
DENVER INTL AP CLOUDY    47  44  90 S7        30.34S
DMNS CITY PARK   N/A     49  42  77 SE5G13    30.34S
AURORA         CLOUDY    47  44  88 S7        30.35F
FRONT RANGE AP PTCLDY    46  45  93 MISG      30.35S
ERIE MUNI ARPT CLOUDY    50  47  88 S5        30.33F
BOULDER MUN AP CLOUDY    50  46  87 CALM      30.33F
CENTENNIAL     CLOUDY    47  42  83 SE5       30.35F
BROOMFIELD     CLOUDY    48  45  87 SE5       30.35S
FORT COLLINS   MOCLDY    48  45  87 S10       30.33F
LONGMONT       CLOUDY    53  47  82 CALM      30.35F
$$

COZ041-046-047-076>085-087-088-300900-
...PIKES PEAK/PALMER DIVIDE AND SOUTHERN FOOTHILLS...

CITY           SKY/WX    TMP DP  RH WIND       PRES   REMARKS
COLO. SPRINGS  CLOUDY    47  44  90 NE8       30.36F
A. F. ACADEMY  MOCLDY    46  46  99 NW2       30.36F
ELLICOTT       CLOUDY   N/A N/A N/A E7        30.35F
FALCON         CLOUDY    44  43  97 N7        30.38S
FORT CARSON    CLOUDY    48  47  96 SE7       30.35F
LIMON          CLOUDY    46  43  89 CALM      30.35S
MONUMENT HILL  CLOUDY    41  41 100 CALM      30.39S
TRINIDAD       CLOUDY    50  47  89 W3        30.36F
$$

COZ042>045-048>051-090-091-300900-
...NORTHEAST COLORADO...

CITY           SKY/WX    TMP DP  RH WIND       PRES   REMARKS
GREELEY ARPT   MOCLDY    46  45  93 S7        30.33S
AKRON          CLOUDY    47  44  90 CALM      30.32F
BURLINGTON     CLOUDY    49  46  90 N8        30.31S
WRAY           CLOUDY    49  46  88 N6        30.32S
STERLING       CLOUDY    48  45  87 CALM      30.31S
HOLYOKE        CLOUDY    48  43  81 N6        30.32S
FORT MORGAN    CLOUDY    48  44  84 SE5       30.33S
$$

COZ086-089-092>099-300900-
...SOUTHEAST COLORADO...

CITY           SKY/WX    TMP DP  RH WIND       PRES   REMARKS
PUEBLO         CLOUDY    52  49  89 SE5       30.34R
LA JUNTA       CLOUDY    54  48  80 N8        30.32F
LAMAR          CLOUDY    52  48  86 N9        30.29R
SPRINGFIELD      N/A     50  48  93 N16       30.29F
$$


USA.gov is the U.S. government's official web portal to all federal, state and local government web resources and services.